Wind_Speed
38 38 38 38 38 38 38 37 36 36 36 35 35 35 34 34 34 34 34 35 35 35 36 36 36 36 36 37 37 37 38 38 38 38 39 39 39 39
40 39 39 39 38 38 38 37 37 37 36 36 36 36 36 36 36 36 37 36 37 37 38 38 38 39 39 39 39 40 40 40 40 40 40 40 40 40
42 41 40 40 39 39 39 38 38 38 38 37 37 37 38 38 38 39 39 39 39 39 40 40 40 40 41 41 41 41 41 41 41 41 41 42 42 42
43 42 42 41 40 40 40 40 40 39 39 39 38 38 39 40 40 40 40 40 41 41 42 42 42 42 43 43 44 43 43 44 43 44 43 43 43 43
44 44 43 43 42 42 42 41 41 41 40 40 40 41 41 42 42 42 42 43 43 43 43 44 44 44 45 45 46 46 46 46 45 45 45 45 45 45
46 45 45 44 44 44 44 43 43 42 42 42 42 43 43 44 44 44 44 45 45 44 45 45 46 46 47 47 47 47 47 47 47 46 46 46 46 46
47 46 46 46 46 46 45 45 45 44 44 43 43 43 44 44 45 45 46 46 46 46 47 47 47 47 48 48 47 47 47 47 48 48 48 48 47 47
47 47 47 47 47 47 47 46 46 45 44 44 44 44 44 45 45 45 46 46 46 47 47 48 48 48 48 48 48 48 48 48 48 48 49 49 49 49
48 48 48 48 48 48 48 47 46 47 46 46 45 45 46 45 45 46 45 45 46 46 47 47 47 47 47 48 48 48 48 49 49 49 50 50 51 51
49 49 49 48 49 48 48 48 48 48 47 47 47 46 46 46 46 46 46 46 46 46 46 46 47 47 48 48 48 48 48 49 50 51 51 52 53 53
50 49 49 49 48 49 49 49 48 48 48 48 47 47 47 47 47 47 47 47 46 46 47 47 47 47 47 48 48 49 49 49 50 51 52 53 54 54
50 50 50 50 49 49 50 49 49 48 49 49 48 48 48 48 48 48 48 47 47 47 47 47 47 48 47 48 49 49 50 51 52 53 53 54 54 55
50 50 50 50 50 50 50 50 49 49 49 49 49 49 49 49 49 49 49 49 49 48 48 48 48 48 49 48 49 51 52 52 53 53 54 55 55 56
51 51 51 51 51 51 50 50 50 49 49 49 49 49 49 49 49 49 50 50 49 49 49 49 49 50 51 51 51 52 53 53 53 54 54 55 55 55
50 50 50 51 51 51 51 51 51 50 50 50 50 49 49 49 50 49 49 50 49 50 50 50 51 51 53 53 53 53 53 53 54 54 54 54 54 54
50 50 49 49 50 50 50 50 50 50 50 50 50 50 50 49 49 49 49 50 50 51 51 52 53 53 54 54 55 54 54 54 54 54 53 53 53 54
50 50 49 49 49 49 49 49 49 49 50 50 50 50 50 50 50 50 51 51 52 52 53 54 54 55 56 56 55 55 54 54 54 53 53 52 53 54
48 48 48 48 47 47 47 47 47 48 48 49 49 49 50 50 51 51 52 53 53 54 55 55 55 55 55 55 55 55 54 53 53 53 53 52 52 52
47 46 46 46 46 46 46 46 46 47 47 48 49 49 50 51 51 52 53 54 54 55 55 56 56 56 55 54 53 53 53 52 52 52 52 51 50 50
45 45 45 45 46 46 46 46 47 47 47 48 49 49 50 51 52 52 53 53 54 54 54 55 55 55 54 54 52 52 53 53 52 51 50 49 48 48
44 45 45 46 46 46 47 47 48 48 49 49 50 50 51 51 52 52 52 52 52 52 52 53 53 54 54 54 53 52 52 52 51 50 49 48 47 47
44 44 45 45 46 46 47 47 48 48 48 49 49 49 50 50 50 50 50 50 51 51 51 52 53 53 53 53 52 51 50 50 49 48 48 47 47 47
43 44 45 45 45 45 46 46 46 46 46 47 47 48 48 48 49 49 49 50 50 50 51 51 52 51 51 51 50 49 48 47 47 47 48 48 48 47
Wind_Direction
256 257 258 259 261 262 263 265 265 266 267 269 271 272 273 273 273 275 277 278 279 281 283 283 284 284 285 286 287 288 289 290 290 291 292 292 292 291
255 257 259 260 261 263 264 265 265 265 267 268 269 271 271 272 274 275 277 278 279 280 282 283 284 284 285 286 287 287 288 289 289 290 291 291 291 290
255 257 258 259 261 262 263 265 266 266 267 268 269 270 271 272 274 275 277 278 279 281 282 283 284 284 285 285 286 286 287 287 288 289 290 290 290 290
256 256 257 258 260 262 263 265 266 267 267 268 269 269 271 272 274 275 277 278 280 281 282 283 283 284 284 285 286 286 286 286 288 288 289 289 289 289
256 256 258 259 260 262 264 265 266 267 267 268 268 269 271 272 274 275 277 279 281 282 282 282 283 284 285 285 286 286 286 286 287 287 288 289 289 289
255 256 257 259 261 263 264 265 266 267 268 268 269 270 271 273 274 276 277 279 280 281 281 282 283 283 284 284 285 285 286 286 286 287 287 288 289 289
255 256 257 258 260 262 264 265 266 268 269 270 271 271 273 274 275 276 276 278 279 280 281 282 282 283 283 284 284 285 285 285 286 287 287 287 288 289
255 256 257 259 261 262 264 265 266 268 268 269 271 273 273 274 275 276 277 278 279 281 282 282 282 283 283 283 284 284 285 285 285 286 287 287 288 289
256 257 258 259 260 262 264 265 266 267 268 269 271 272 274 274 275 276 278 279 280 281 281 281 282 283 283 284 285 285 285 286 286 287 287 288 288 289
257 258 258 259 260 262 263 264 265 266 267 268 270 272 273 275 276 277 278 279 281 281 282 282 282 283 284 285 285 286 287 287 288 288 288 289 289 290
258 258 259 260 261 262 263 263 265 266 267 268 270 271 272 274 275 277 278 279 280 280 281 282 282 283 284 285 286 287 288 289 290 290 290 290 290 290
257 258 259 260 261 262 262 263 264 265 266 268 270 271 272 273 274 276 278 279 279 280 281 282 283 283 283 284 286 287 289 290 290 290 291 291 291 291
257 258 258 259 261 262 263 263 264 265 266 268 270 271 272 273 274 275 277 279 279 280 280 282 283 283 284 285 286 288 290 290 290 290 291 292 292 293
256 257 258 259 261 261 262 262 263 265 266 268 270 271 272 273 274 276 277 278 279 280 280 281 283 284 285 285 287 289 290 290 291 291 291 292 292 293
256 257 258 259 259 261 262 262 263 265 267 269 270 271 272 273 275 276 277 278 279 280 281 282 283 284 286 287 288 289 289 290 291 291 291 292 292 293
256 257 257 258 259 260 261 262 263 265 267 268 269 270 271 272 274 276 277 279 280 281 282 283 284 285 286 287 288 289 289 290 290 291 291 292 293 294
256 256 257 258 259 260 262 263 264 266 267 267 269 270 271 272 274 275 277 279 280 282 283 284 285 285 286 286 287 288 289 289 290 290 290 291 292 293
255 256 257 258 259 261 262 264 265 266 267 268 269 270 272 273 274 276 278 280 281 282 283 284 284 285 285 286 287 288 288 289 289 290 291 291 292 292
256 257 258 259 260 261 263 264 265 266 268 269 270 271 273 274 276 277 279 280 281 282 283 284 284 284 285 286 287 288 288 288 289 290 291 291 292 292
257 258 258 259 260 262 263 265 266 267 269 270 271 273 274 276 277 278 280 281 282 283 283 283 284 285 286 286 286 287 288 289 289 289 290 291 291 292
258 259 260 261 262 263 264 266 267 269 270 271 273 274 275 276 278 279 280 282 283 283 284 284 285 286 286 286 286 286 287 288 289 289 289 289 291 292
259 260 262 263 264 265 266 267 267 268 270 272 273 274 275 276 278 279 280 282 283 284 285 286 286 286 286 286 286 286 285 286 286 288 288 290 291 293
261 262 263 264 265 266 267 267 267 268 269 271 273 274 275 276 278 279 280 282 283 285 286 287 287 286 286 286 286 286 285 284 285 286 289 291 292 294
Height
5765 5767 5769 5771 5772 5774 5775 5776 5778 5778 5779 5778 5778 5778 5778 5778 5778 5779 5779 5779 5778 5777 5776 5775 5774 5773 5772 5770 5769 5767 5766 5764 5762 5760 5758 5756 5754 5751
5756 5758 5760 5761 5763 5764 5766 5767 5768 5769 5770 5770 5770 5770 5769 5770 5770 5770 5770 5770 5769 5768 5767 5766 5765 5764 5762 5761 5760 5758 5756 5754 5752 5750 5748 5746 5743 5741
5746 5748 5750 5752 5753 5755 5756 5757 5758 5759 5760 5761 5761 5761 5761 5761 5761 5761 5761 5760 5760 5759 5758 5756 5755 5754 5753 5751 5749 5748 5746 5744 5742 5740 5738 5735 5733 5731
5735 5738 5740 5742 5743 5745 5746 5747 5748 5749 5750 5751 5751 5751 5751 5751 5751 5751 5751 5750 5749 5748 5747 5746 5745 5743 5742 5740 5739 5737 5735 5733 5731 5729 5727 5724 5722 5720
5724 5727 5729 5731 5733 5734 5736 5737 5738 5739 5740 5741 5741 5741 5741 5741 5741 5741 5740 5740 5739 5738 5736 5735 5734 5732 5731 5729 5727 5725 5724 5722 5720 5717 5715 5713 5710 5708
5713 5716 5718 5720 5722 5723 5725 5726 5727 5728 5729 5730 5730 5731 5731 5731 5731 5730 5730 5729 5728 5726 5725 5723 5722 5720 5719 5717 5716 5713 5711 5709 5707 5705 5703 5701 5698 5696
5702 5704 5706 5708 5710 5712 5714 5715 5716 5717 5718 5718 5719 5719 5719 5719 5719 5718 5718 5717 5716 5714 5713 5711 5710 5708 5706 5704 5703 5701 5699 5697 5695 5693 5690 5688 5686 5683
5690 5692 5695 5697 5699 5700 5702 5703 5704 5705 5706 5707 5707 5708 5708 5707 5707 5706 5706 5705 5705 5703 5700 5699 5697 5696 5694 5692 5690 5688 5686 5684 5682 5680 5677 5675 5672 5670
5678 5680 5682 5684 5686 5688 5689 5690 5692 5693 5694 5695 5696 5696 5696 5696 5695 5695 5693 5693 5692 5690 5688 5687 5685 5683 5681 5679 5677 5675 5673 5671 5669 5666 5664 5661 5659 5656
5665 5667 5669 5671 5673 5675 5677 5678 5679 5681 5682 5683 5684 5684 5683 5683 5683 5682 5681 5681 5680 5678 5676 5675 5673 5671 5669 5667 5665 5662 5660 5657 5655 5652 5649 5647 5644 5641
5652 5654 5656 5659 5661 5662 5664 5666 5667 5668 5668 5669 5670 5671 5671 5670 5670 5669 5669 5668 5668 5666 5664 5663 5661 5659 5657 5655 5652 5650 5647 5644 5641 5638 5635 5632 5629 5626
5639 5641 5644 5646 5647 5649 5650 5652 5654 5655 5656 5657 5657 5658 5658 5658 5657 5656 5656 5655 5654 5654 5652 5650 5648 5646 5646 5644 5640 5637 5634 5631 5627 5624 5620 5617 5614 5611
5626 5628 5630 5632 5634 5635 5637 5639 5640 5642 5643 5643 5644 5645 5644 5644 5644 5643 5642 5642 5641 5640 5639 5637 5635 5633 5631 5631 5628 5624 5620 5617 5613 5609 5605 5602 5598 5594
5612 5615 5617 5619 5620 5622 5623 5625 5627 5628 5629 5630 5631 5631 5631 5631 5631 5630 5629 5628 5627 5626 5625 5623 5622 5620 5618 5616 5614 5611 5606 5602 5599 5595 5591 5587 5583 5579
5598 5601 5603 5605 5606 5608 5610 5611 5613 5614 5615 5616 5617 5618 5618 5618 5617 5616 5615 5614 5613 5612 5611 5609 5607 5605 5603 5601 5599 5596 5593 5589 5584 5580 5576 5572 5568 5564
5585 5587 5589 5591 5592 5594 5596 5598 5599 5601 5602 5603 5603 5604 5604 5604 5603 5602 5601 5600 5599 5598 5596 5594 5592 5590 5588 5586 5583 5581 5577 5574 5570 5565 5562 5557 5553 5548
5571 5573 5575 5577 5579 5581 5582 5584 5585 5587 5587 5588 5589 5590 5590 5590 5589 5588 5587 5586 5585 5584 5582 5579 5577 5574 5572 5570 5568 5565 5561 5558 5554 5550 5547 5544 5539 5534
5557 5560 5562 5564 5566 5568 5569 5571 5572 5573 5574 5574 5575 5575 5575 5575 5575 5574 5573 5571 5570 5568 5566 5564 5562 5559 5557 5555 5552 5549 5546 5542 5539 5535 5531 5529 5525 5520
5544 5546 5549 5551 5553 5555 5556 5557 5558 5559 5560 5560 5561 5561 5561 5561 5560 5559 5558 5556 5555 5553 5551 5548 5545 5543 5541 5540 5538 5533 5530 5527 5524 5521 5517 5514 5511 5507
5531 5533 5536 5538 5539 5541 5543 5544 5545 5546 5546 5547 5547 5547 5547 5546 5545 5544 5543 5541 5539 5537 5535 5532 5529 5527 5525 5524 5522 5519 5513 5511 5508 5506 5503 5499 5496 5493
5518 5520 5522 5524 5526 5528 5529 5530 5531 5532 5533 5533 5533 5533 5532 5531 5531 5529 5528 5526 5524 5522 5520 5517 5514 5511 5508 5506 5505 5503 5499 5495 5492 5489 5487 5485 5483 5480
5506 5508 5509 5511 5513 5514 5515 5516 5517 5518 5519 5519 5519 5518 5518 5517 5516 5515 5513 5511 5509 5507 5505 5502 5499 5495 5493 5491 5489 5487 5485 5481 5477 5474 5471 5469 5467 5465
5493 5495 5497 5498 5499 5501 5502 5503 5503 5504 5505 5505 5504 5504 5503 5502 5501 5500 5498 5496 5494 5492 5490 5487 5484 5481 5477 5475 5473 5471 5469 5467 5464 5461 5458 5455 5452 5450